Location: Unspecified
(0.0000°N, 0.0000°E)
Time: 02:37:16
(UTC+00:00)

Tiangong 2 - Visible Passes

Search period start: 22 April 2019 00:00
Search period end: 02 May 2019 00:00
Orbit: 378 x 389 km, 42.8° (Epoch: 21 April)

Date Brightness Start Highest point End Pass type
(mag) Time Alt. Az. Time Alt. Az. Time Alt. Az.
23 Apr 1.2 05:26:33 10° SW 05:29:42 75° SE 05:32:51 10° NE visible
24 Apr 2.9 04:29:34 23° SSE 04:29:58 24° SE 04:32:37 10° ENE visible
25 Apr 1.9 05:05:28 23° W 05:06:48 34° NW 05:09:42 10° NNE visible
26 Apr 3.7 04:09:04 20° NE 04:09:04 20° NE 04:10:11 10° NE visible
27 Apr 3.6 04:44:48 12° NNW 04:44:48 12° NNW 04:45:30 10° NNW visible
